Location: Bougoudala
(13.2282°N, 4.9477°W)
Time: 10:42:39
(UTC+00:00)

SL-4 R/B - Pass Details

Date: 29 January 2020
Orbit: 428 x 666 km, 51.6° (Epoch: 23 February)

Event Time Altitude Azimuth Distance (km) Brightness Sun altitude
Rises 19:00:52 0° 224° (SW) 2,987 6.9 -10.6°
Reaches altitude 10° 19:03:15 10° 228° (SW) 2,078 6.1 -11.1°
Maximum altitude 19:07:59 58° 307° (NW) 763 2.9 -12.2°
Drops below altitude 10° 19:12:38 10° 27° (NNE) 2,030 4.5 -13.3°
Enters shadow 19:12:50 - 27° (NNE) 2,106 4.6 -13.4°
